EST,Max TemperatureF,Mean TemperatureF,Min TemperatureF,Max Dew PointF,MeanDew PointF,Min DewpointF,Max Humidity, Mean Humidity, Min Humidity, Max Sea Level PressureIn, Mean Sea Level PressureIn, Min Sea Level PressureIn, Max VisibilityMiles, Mean VisibilityMiles, Min VisibilityMiles, Max Wind SpeedMPH, Mean Wind SpeedMPH, Max Gust SpeedMPH,PrecipitationIn, CloudCover, Events, WindDirDegrees
2011-12-1,51,38,26,30,20,14,86,52,22,30.33,30.25,30.10,10,10,10,6,1,,0.00,0,,168
2011-12-2,51,42,32,21,11,0,60,30,15,30.46,30.37,30.31,10,10,10,25,6,32,0.00,0,,286
2011-12-3,46,39,32,28,23,16,81,58,39,30.55,30.50,30.47,10,10,10,8,2,,0.00,0,,173
2011-12-4,51,40,30,37,32,27,93,73,54,30.48,30.40,30.34,10,10,7,8,2,,0.00,3,,169
2011-12-5,53,48,44,50,42,36,100,83,71,30.35,30.24,30.15,10,7,0,9,2,,0.00,8,Fog,163
2011-12-6,55,53,51,54,52,50,100,97,94,30.16,30.08,29.98,10,6,0,7,4,,0.16,8,Fog-Rain,169
2011-12-7,55,44,32,54,44,27,100,94,80,29.95,29.77,29.60,10,4,0,30,5,48,1.06,8,Rain-Snow,339
2011-12-8,42,34,26,25,18,5,86,56,37,30.24,30.15,29.97,10,10,4,24,11,44,0.00,1,Snow,329
2011-12-9,44,36,28,28,24,19,86,64,37,30.24,30.20,30.16,10,10,10,5,1,,0.00,0,,165
2011-12-10,33,30,28,27,22,19,75,67,60,30.36,30.28,30.20,10,10,10,17,9,24,0.00,1,,331
2011-12-11,35,27,19,21,18,16,86,65,48,30.51,30.44,30.39,10,10,10,8,2,,0.00,0,,148
2011-12-12,50,38,26,32,25,19,80,65,47,30.47,30.42,30.38,10,10,10,5,0,,0.00,2,,308
2011-12-13,53,44,35,41,37,30,81,72,54,30.44,30.40,30.37,10,10,10,18,5,28,0.00,5,,288
2011-12-14,55,48,41,43,39,32,93,75,54,30.38,30.33,30.28,10,10,7,7,2,,0.00,4,,170
2011-12-15,62,52,42,50,43,37,93,70,45,30.24,30.16,30.09,10,9,4,21,4,32,0.00,4,Rain,225
2011-12-16,53,50,44,45,43,39,100,79,62,30.20,30.14,30.10,10,8,0,22,12,31,0.16,6,Rain,300
2011-12-17,41,36,30,36,27,16,93,74,45,30.16,30.12,30.09,10,10,10,18,8,32,0.00,4,,310
2011-12-18,41,34,28,23,19,10,75,59,29,30.26,30.19,30.11,10,10,10,28,15,43,0.00,1,,307
2011-12-19,53,40,28,27,16,1,74,45,12,30.24,30.20,30.16,10,10,10,15,2,22,0.00,0,,235
2011-12-20,53,45,37,46,34,12,87,60,24,30.18,30.14,30.10,10,10,10,14,4,25,0.00,4,,181
2011-12-21,55,52,50,52,49,45,100,88,76,30.10,30.00,29.91,10,10,3,13,4,28,0.03,7,Rain,184
2011-12-22,59,52,44,54,49,43,100,91,76,30.12,30.03,29.87,10,6,0,13,2,24,0.39,5,Fog-Rain,166
2011-12-23,55,46,37,50,35,32,87,80,70,30.21,30.10,29.91,10,10,5,24,14,37,0.00,8,,314
2011-12-24,42,37,32,32,27,21,81,69,42,30.38,30.30,30.22,10,10,10,20,9,29,0.00,3,,302
2011-12-25,44,37,30,28,17,-4,87,48,16,30.33,30.24,30.13,10,10,10,24,4,38,0.00,1,,279
2011-12-26,46,38,30,25,20,9,70,53,23,30.31,30.22,30.11,10,10,10,29,13,47,0.00,0,,339
2011-12-27,44,38,32,41,31,23,100,83,60,30.11,29.74,29.50,10,6,0,30,9,45,0.40,8,Fog-Rain-Snow,207
2011-12-28,35,34,32,27,22,18,80,66,48,29.99,29.85,29.68,10,10,3,39,18,55,0.00,4,Snow,301
2011-12-29,42,36,30,23,18,9,69,53,31,30.00,29.95,29.90,10,10,10,15,5,23,0.00,1,,226
2011-12-30,50,42,35,41,29,18,93,61,35,30.01,29.94,29.86,10,10,10,17,4,23,0.00,3,,193
2011-12-31,48,42,37,39,32,28,87,64,50,30.13,29.98,29.86,10,10,10,22,8,41,0.00,3,,282